| time (UTC) | temp F | wind direction | speed MPH | gust MPH | rain 1hr in | rain 24hr in | rain mn in | humidity % | barometer mb |
| 20260506093043 | 51 | 113 | 0.0 | 12.0 | 0.00 | 0.14 | 0.14 | 83 | 1006.7 |
| 20260506091538 | 52 | 96 | 1.0 | 8.0 | 0.00 | 0.14 | 0.14 | 81 | 1006.4 |
| 20260506090044 | 54 | 186 | 0.0 | 9.0 | 0.00 | 0.14 | 0.14 | 73 | 1006.5 |
| 20260506084534 | 55 | 134 | 0.0 | 13.0 | 0.00 | 0.14 | 0.14 | 69 | 1006.1 |
| 20260506083030 | 57 | 173 | 1.0 | 10.0 | 0.00 | 0.14 | 0.14 | 71 | 1005.7 |
| 20260506081534 | 58 | 97 | 1.0 | 9.0 | 0.00 | 0.14 | 0.14 | 79 | 1005.4 |
| 20260506073026 | 58 | 182 | 1.0 | 13.0 | 0.00 | 0.14 | 0.14 | 79 | 1005.1 |
| 20260506071524 | 59 | 164 | 1.0 | 15.0 | 0.00 | 0.14 | 0.14 | 77 | 1005.4 |
| 20260506061535 | 60 | 272 | 0.0 | 12.0 | 0.00 | 0.14 | 0.14 | 76 | 1006.4 |
| 20260506044602 | 61 | 107 | 1.0 | 21.0 | 0.01 | 0.14 | 0.14 | 74 | 1007.5 |
| 20260506043110 | 61 | 80 | 0.0 | 15.0 | 0.01 | 0.14 | 0.14 | 79 | 1007.7 |
| 20260506041600 | 59 | 94 | 3.0 | 16.0 | 0.01 | 0.14 | 0.14 | 80 | 1008.0 |
| 20260506040106 | 59 | 126 | 1.0 | 19.0 | 0.00 | 0.13 | 0.13 | 85 | 1008.2 |
| 20260506034604 | 60 | 67 | 2.0 | 16.0 | 0.00 | 0.13 | 0.13 | 82 | 1008.4 |
| 20260506033054 | 60 | 115 | 1.0 | 15.0 | 0.00 | 0.13 | 0.13 | 81 | 1008.6 |
| 20260506031554 | 61 | 202 | 3.0 | 12.0 | 0.00 | 0.13 | 0.13 | 80 | 1008.7 |
| 20260506030055 | 61 | 238 | 2.0 | 14.0 | 0.01 | 0.13 | 0.13 | 82 | 1009.0 |
| 20260506024557 | 60 | 81 | 4.0 | 12.0 | 0.01 | 0.13 | 0.13 | 85 | 1009.4 |
| 20260506023050 | 59 | 152 | 0.0 | 15.0 | 0.03 | 0.13 | 0.13 | 88 | 1009.7 |
| 20260506021559 | 59 | 146 | 2.0 | 16.0 | 0.05 | 0.13 | 0.13 | 89 | 1010.0 |
| 20260506020044 | 59 | 126 | 2.0 | 19.0 | 0.04 | 0.13 | 0.13 | 87 | 1010.4 |
| 20260506014542 | 59 | 171 | 0.0 | 10.0 | 0.04 | 0.13 | 0.13 | 89 | 1010.7 |
| 20260506013047 | 61 | 136 | 1.0 | 14.0 | 0.01 | 0.09 | 0.09 | 83 | 1011.0 |
| 20260506011539 | 62 | 294 | 3.0 | 15.0 | 0.00 | 0.09 | 0.09 | 76 | 1011.1 |
| 20260506010037 | 61 | 136 | 1.0 | 9.0 | 0.00 | 0.09 | 0.09 | 83 | 1011.2 |
| 20260506004536 | 61 | 172 | 0.0 | 11.0 | 0.00 | 0.09 | 0.09 | 81 | 1011.5 |
| 20260506003035 | 63 | 87 | 3.0 | 14.0 | 0.00 | 0.09 | 0.09 | 78 | 1011.7 |
| 20260506001530 | 62 | 128 | 4.0 | 10.0 | 0.00 | 0.09 | 0.09 | 79 | 1011.8 |
| 20260506000038 | 61 | 229 | 0.0 | 10.0 | 0.00 | 0.09 | 0.09 | 81 | 1012.1 |
| 20260505234525 | 60 | 79 | 3.0 | 15.0 | 0.00 | 0.09 | 0.09 | 82 | 1012.4 |
| 20260505233020 | 59 | 102 | 3.0 | 12.0 | 0.00 | 0.09 | 0.09 | 85 | 1012.6 |
| 20260505231522 | 59 | 178 | 2.0 | 11.0 | 0.01 | 0.09 | 0.09 | 86 | 1012.9 |
| 20260505230017 | 58 | 176 | 4.0 | 9.0 | 0.02 | 0.09 | 0.09 | 87 | 1013.1 |
| 20260505224514 | 57 | 36 | 1.0 | 8.0 | 0.02 | 0.09 | 0.09 | 89 | 1013.2 |
| 20260505223010 | 57 | 128 | 3.0 | 15.0 | 0.02 | 0.09 | 0.09 | 88 | 1013.3 |
| 20260505221509 | 58 | 120 | 1.0 | 8.0 | 0.02 | 0.09 | 0.08 | 87 | 1013.3 |
| 20260505220007 | 59 | 220 | 2.0 | 10.0 | 0.00 | 0.07 | 0.06 | 83 | 1013.2 |
| 20260505214504 | 59 | 192 | 1.0 | 12.0 | 0.00 | 0.07 | 0.06 | 82 | 1013.3 |
| 20260505213105 | 58 | 320 | 2.0 | 14.0 | 0.00 | 0.07 | 0.06 | 83 | 1013.3 |
| 20260505211607 | 58 | 163 | 2.0 | 11.0 | 0.00 | 0.07 | 0.06 | 85 | 1013.3 |
| 20260505210057 | 58 | 152 | 1.0 | 9.0 | 0.00 | 0.07 | 0.06 | 85 | 1013.4 |
| 20260505204556 | 57 | 166 | 0.0 | 9.0 | 0.00 | 0.07 | 0.06 | 88 | 1013.5 |
| 20260505203055 | 56 | 121 | 0.0 | 2.0 | 0.00 | 0.07 | 0.06 | 89 | 1013.6 |
| 20260505201555 | 56 | 69 | 0.0 | 3.0 | 0.00 | 0.07 | 0.06 | 88 | 1013.9 |
| 20260505200059 | 57 | 93 | 0.0 | 10.0 | 0.00 | 0.07 | 0.06 | 89 | 1013.8 |
| 20260505194556 | 57 | 123 | 0.0 | 3.0 | 0.00 | 0.07 | 0.06 | 89 | 1013.9 |
| 20260505193051 | 57 | 273 | 0.0 | 6.0 | 0.00 | 0.07 | 0.06 | 89 | 1013.9 |
| 20260505191550 | 57 | 137 | 0.0 | 10.0 | 0.02 | 0.07 | 0.06 | 89 | 1014.1 |
| 20260505190051 | 56 | 169 | 1.0 | 10.0 | 0.02 | 0.07 | 0.06 | 90 | 1014.2 |
| 20260505184548 | 56 | 281 | 1.0 | 15.0 | 0.02 | 0.07 | 0.06 | 90 | 1014.3 |
| 20260505183055 | 56 | 143 | 2.0 | 13.0 | 0.02 | 0.07 | 0.06 | 89 | 1014.2 |
| 20260505181549 | 57 | 137 | 0.0 | 5.0 | 0.00 | 0.06 | 0.05 | 89 | 1014.3 |
| 20260505180050 | 57 | 146 | 1.0 | 12.0 | 0.00 | 0.06 | 0.05 | 89 | 1014.4 |
| 20260505174556 | 57 | 62 | 0.0 | 11.0 | 0.02 | 0.06 | 0.05 | 89 | 1014.3 |
| 20260505173042 | 57 | 153 | 0.0 | 8.0 | 0.02 | 0.06 | 0.05 | 90 | 1014.5 |
| 20260505171546 | 57 | 327 | 0.0 | 12.0 | 0.03 | 0.06 | 0.05 | 90 | 1014.7 |
| 20260505170038 | 57 | 51 | 0.0 | 5.0 | 0.05 | 0.06 | 0.05 | 90 | 1014.8 |
| 20260505164537 | 57 | 180 | 0.0 | 8.0 | 0.03 | 0.06 | 0.03 | 90 | 1015.0 |
| 20260505163035 | 57 | 124 | 0.0 | 4.0 | 0.03 | 0.06 | 0.03 | 89 | 1015.2 |
| 20260505161534 | 57 | 144 | 0.0 | 0.0 | 0.02 | 0.05 | 0.02 | 87 | 1015.2 |
| 20260505153027 | 57 | 147 | 0.0 | 3.0 | 0.00 | 0.03 | 0.00 | 83 | 1015.8 |
| 20260505151527 | 57 | 135 | 1.0 | 8.0 | 0.00 | 0.03 | 0.00 | 83 | 1015.8 |
| 20260505124519 | 55 | 159 | 0.0 | 3.0 | 0.00 | 0.03 | 0.03 | 80 | 1016.6 |
| 20260505123010 | 55 | 113 | 0.0 | 3.0 | 0.00 | 0.03 | 0.03 | 79 | 1016.7 |
| 20260505121512 | 55 | 132 | 0.0 | 3.0 | 0.00 | 0.03 | 0.03 | 78 | 1016.8 |
| 20260505120024 | 55 | 76 | 0.0 | 8.0 | 0.00 | 0.03 | 0.03 | 78 | 1016.7 |
| 20260505114509 | 55 | 121 | 0.0 | 4.0 | 0.00 | 0.03 | 0.03 | 79 | 1016.6 |
| 20260505113007 | 54 | 137 | 0.0 | 2.0 | 0.00 | 0.03 | 0.03 | 82 | 1016.7 |
| 20260505111514 | 54 | 232 | 0.0 | 3.0 | 0.00 | 0.03 | 0.03 | 82 | 1016.7 |
| 20260505101506 | 56 | 138 | 0.0 | 10.0 | 0.00 | 0.03 | 0.03 | 76 | 1016.3 |
| 20260505100003 | 56 | 142 | 0.0 | 3.0 | 0.00 | 0.03 | 0.03 | 76 | 1016.4 |
| 20260505094501 | 56 | 110 | 1.0 | 9.0 | 0.00 | 0.03 | 0.03 | 74 | 1016.3 |